Contract 0x87ea94e5d770639bffa07de4ec630cd69a2024ee

 
Txn Hash Method
Block
From
To
Value [Txn Fee]
0x4fe466885d1cf7e16d2ea97512e89d2702ac710cfb9d2abb68e5cf546c886993Buy183575682021-08-24 20:46:5695 days 14 hrs ago0x0000004aeba5281a38f203ebb935e255e4b463b8 IN  0x87ea94e5d770639bffa07de4ec630cd69a2024ee0 MATIC0.012182995
0x42d5145ba7674801a714aaa01be1628a2aa50d50af42ece7cb03af7fd3a07fb4Buy183557592021-08-24 19:39:5295 days 15 hrs ago0x0000004aeba5281a38f203ebb935e255e4b463b8 IN  0x87ea94e5d770639bffa07de4ec630cd69a2024ee0 MATIC0.049872868
0xdb01c128f43a8a045f52dd65a324ad92b8c46dd3cf5feafff67dce95c60b0954Sell183542002021-08-24 18:41:3695 days 16 hrs ago0x0000004aeba5281a38f203ebb935e255e4b463b8 IN  0x87ea94e5d770639bffa07de4ec630cd69a2024ee0 MATIC0.00265936
0xf27754d8781f028c53a2d97004d2aeec1e975682b6d9d599eef421763f824747Buy183489282021-08-24 15:32:3195 days 19 hrs ago0x0000004aeba5281a38f203ebb935e255e4b463b8 IN  0x87ea94e5d770639bffa07de4ec630cd69a2024ee0 MATIC0.011241835
0xb46a44a7c77162491a4b12654f51b9e0cc046770d52eb445f9c3f9689d3e2edfBuy183488662021-08-24 15:30:2395 days 19 hrs ago0x0000004aeba5281a38f203ebb935e255e4b463b8 IN  0x87ea94e5d770639bffa07de4ec630cd69a2024ee0 MATIC0.011242495
0x8639761cd8cfb1fd50edba5b48faed17b1670bc67c3afc955f8ef5dbeecd7259Buy183486082021-08-24 15:19:2195 days 20 hrs ago0x0000004aeba5281a38f203ebb935e255e4b463b8 IN  0x87ea94e5d770639bffa07de4ec630cd69a2024ee0 MATIC0.021461685
0x2c267af28b8edee7d367dca5e7866592b121487aa6d5412f54202c3af2fa16d8Buy183480232021-08-24 14:58:4595 days 20 hrs ago0x0000004aeba5281a38f203ebb935e255e4b463b8 IN  0x87ea94e5d770639bffa07de4ec630cd69a2024ee0 MATIC0.012182335
0x1c10db58ec957699d09f9c722465ec810b6e65d0763589480b61b48d5e5f0760Buy183475212021-08-24 14:39:1895 days 20 hrs ago0x0000004aeba5281a38f203ebb935e255e4b463b8 IN  0x87ea94e5d770639bffa07de4ec630cd69a2024ee0 MATIC0.011241175
0xd7ef8821ae0146d6a38e342ab88871d00e312a962efb8e22b21d18a11338667fBuy183458892021-08-24 13:34:3895 days 21 hrs ago0x0000004aeba5281a38f203ebb935e255e4b463b8 IN  0x87ea94e5d770639bffa07de4ec630cd69a2024ee0 MATIC0.002651165
0x041c2b81df1e227d4da571cb2365bbb3d81dfb6ee73b68e7d12907392a0766acSell183441012021-08-24 12:26:2295 days 23 hrs ago0x0000004aeba5281a38f203ebb935e255e4b463b8 IN  0x87ea94e5d770639bffa07de4ec630cd69a2024ee0 MATIC0.00266002
0x0fd9585cb12fdee25b8b549dbac7a73b319980275cd508eb1015d9f1179ded90Buy183401472021-08-24 9:58:2396 days 1 hr ago0x0000004aeba5281a38f203ebb935e255e4b463b8 IN  0x87ea94e5d770639bffa07de4ec630cd69a2024ee0 MATIC0.002651165
0x3a96226c3d10cbbebe31dae6cad576f8b6cc426e15e289ecb9e85eb050aea206Buy183401132021-08-24 9:57:1596 days 1 hr ago0x0000004aeba5281a38f203ebb935e255e4b463b8 IN  0x87ea94e5d770639bffa07de4ec630cd69a2024ee0 MATIC0.012182995
0x8a69437426f8fa53669b630e0cecd0b468c0e3b830e25e9ae0f0e50ad63b48ffBuy183383282021-08-24 8:53:1596 days 2 hrs ago0x0000004aeba5281a38f203ebb935e255e4b463b8 IN  0x87ea94e5d770639bffa07de4ec630cd69a2024ee0 MATIC0.002651165
0x0aab50c7b399e041bd992e0955f2c4e65f060367465663d1c767642393298265Buy183324122021-08-24 5:07:1696 days 6 hrs ago0x0000004aeba5281a38f203ebb935e255e4b463b8 IN  0x87ea94e5d770639bffa07de4ec630cd69a2024ee0 MATIC0.011241175
0x043f8412e593ef95798eb22ea9be7fa3fb2c77e4770320e856252dc75d9cf142Buy183312922021-08-24 4:22:2296 days 7 hrs ago0x0000004aeba5281a38f203ebb935e255e4b463b8 IN  0x87ea94e5d770639bffa07de4ec630cd69a2024ee0 MATIC0.011241835
0xf5d661d3c9f33f61adb88cdfac7c61a198a7604d3a48e2076577fbcacd940ffcBuy183311282021-08-24 4:16:4296 days 7 hrs ago0x0000004aeba5281a38f203ebb935e255e4b463b8 IN  0x87ea94e5d770639bffa07de4ec630cd69a2024ee0 MATIC0.011241835
0x96e1fb28a995bca828a6050286d0a6a57b7d0037f35a3d704447bdbe0a6f1611Buy183295242021-08-24 3:16:3696 days 8 hrs ago0x0000004aeba5281a38f203ebb935e255e4b463b8 IN  0x87ea94e5d770639bffa07de4ec630cd69a2024ee0 MATIC0.021460425
0x54afaeafc98ae509c94b49a2c019059e5f26589a32c4fb0ceaa2772b6ec60154Sell183292782021-08-24 3:05:5696 days 8 hrs ago0x0000004aeba5281a38f203ebb935e255e4b463b8 IN  0x87ea94e5d770639bffa07de4ec630cd69a2024ee0 MATIC0.01475102
0xe35a0585373499370581e58f80dea1eacba21c4ca69bbf861deede92f449c7e0Sell183174432021-08-23 20:00:5396 days 15 hrs ago0x0000004aeba5281a38f203ebb935e255e4b463b8 IN  0x87ea94e5d770639bffa07de4ec630cd69a2024ee0 MATIC0.010355785
0xb0b63bcf7045094c43e318252c395c99c31815931068f17fddb0fcce815d9b87Sell183111302021-08-23 16:18:1396 days 19 hrs ago0x0000004aeba5281a38f203ebb935e255e4b463b8 IN  0x87ea94e5d770639bffa07de4ec630cd69a2024ee0 MATIC0.010355785
0x9e141554370adfadc7e372bc426b735b7a4af4c08dfa37155068f639706874afSell183103232021-08-23 15:48:1396 days 19 hrs ago0x0000004aeba5281a38f203ebb935e255e4b463b8 IN  0x87ea94e5d770639bffa07de4ec630cd69a2024ee0 MATIC0.010355785
0x9ad68f7350a60af6dba2933b217ef4e82f9d174f31adf84d6a75ccbb12d44c2eBuy183089532021-08-23 14:55:4796 days 20 hrs ago0x0000004aeba5281a38f203ebb935e255e4b463b8 IN  0x87ea94e5d770639bffa07de4ec630cd69a2024ee0 MATIC0.011241835
0x945c338fc4630d59fdd34c4692143b5cd22498b558e2be15ea144da73fde84c7Buy183068912021-08-23 13:40:0396 days 21 hrs ago0x0000004aeba5281a38f203ebb935e255e4b463b8 IN  0x87ea94e5d770639bffa07de4ec630cd69a2024ee0 MATIC0.01108669
0x1d658bcb82be29d4649cc93bac18f29cb60cf50db0709855d80a8d9af183d130Buy183061152021-08-23 13:10:2996 days 22 hrs ago0x0000004aeba5281a38f203ebb935e255e4b463b8 IN  0x87ea94e5d770639bffa07de4ec630cd69a2024ee0 MATIC0.020030906
0x8cb563c578c73fd6b03cf3d67b68501e966181cb0ad03c67169b8d71c545de00Sell183029302021-08-23 11:12:1597 days 17 mins ago0x0000004aeba5281a38f203ebb935e255e4b463b8 IN  0x87ea94e5d770639bffa07de4ec630cd69a2024ee0 MATIC0.010355125
[ Download CSV Export 
Latest 1 internal transaction
Parent Txn Hash Block From To Value
0x68ec25abdf7eb0cfe5bdaada06f7710c50c86a6e3256c99d7da8d4e0f9ee8735179093602021-08-12 16:57:44107 days 18 hrs ago 0x8b9805a2f595b6705e74f7310829f2d299d21522  Contract Creation0 MATIC
[ Download CSV Export 
Loading
Are you the contract creator? Verify and Publish your contract source code today!
This contract was created by the contract code at 0x8b9805a2f595b6705e74f7310829f2d299d21522
Note: We also found another 1986 contracts with exact matching byte codes

Decompile ByteCode
0x363d3d373d3d3d363d730b8a853ad2e8984a429f36dabc75f0cbdd5534f85af43d82803e903d91602b57fd5bf3 
Block Transaction Gas Used Reward
Age Block Fee Address BC Fee Address Voting Power Jailed Incoming
Block Uncle Number Difficulty Gas Used Reward
Loading
Loading
Make sure to use the "Vote Down" button for any spammy posts, and the "Vote Up" for interesting conversations.